When you browse on this site, cookies collect data to enhance your experience and personalize the content and advertising you see.
Visit our Privacy Policy to learn more. By continuing to use the site, you agree to this use of cookies and data.
  • In Hungary
  • List of Countries
  • For 7 days
  • Water Temperature
  • Satellite Maps
  • Weather Map
  • News
  • Weather Widgets
  • user-avatar
    Login

    Hourly Weather Petrovo

    Today, 19 November, Monday

    Time Temperature Precipitation Wind Pressure Humidity
    00:00 0°C° 0 mm 1 mps 755 mmHg 61%
    01:00 0°C° 0 mm 1 mps 755 mmHg 61%
    02:00 0°C° 0 mm 1 mps 755 mmHg 63%
    03:00 -2°C° 0 mm 2 mps 755 mmHg 62%
    04:00 -2°C° 0 mm 2 mps 755 mmHg 61%
    05:00 -2°C° 0 mm 2 mps 755 mmHg 59%
    06:00 -2°C° 0 mm 3 mps 755 mmHg 56%
    07:00 -2°C° 0 mm 3 mps 755 mmHg 53%
    08:00 -2°C° 0 mm 3 mps 755 mmHg 50%
    09:00 -2°C° 0 mm 4 mps 755 mmHg 48%
    10:00 -1°C° 0 mm 4 mps 755 mmHg 46%
    11:00 0°C° 0 mm 4 mps 755 mmHg 43%
    12:00 0°C° 0 mm 4 mps 755 mmHg 45%
    13:00 0°C° 0 mm 5 mps 754 mmHg 47%
    14:00 +1°C° 0 mm 5 mps 754 mmHg 49%
    15:00 0°C° 0 mm 5 mps 754 mmHg 50%
    16:00 0°C° 0 mm 5 mps 753 mmHg 52%
    17:00 -1°C° 0 mm 6 mps 753 mmHg 54%
    18:00 -1°C° 0 mm 6 mps 753 mmHg 56%
    19:00 -1°C° 0 mm 6 mps 753 mmHg 59%
    20:00 -1°C° 0 mm 6 mps 752 mmHg 61%
    21:00 -1°C° 0.8 mm 6 mps 752 mmHg 67%
    22:00 -2°C° 0.8 mm 6 mps 752 mmHg 72%
    23:00 -2°C° 0.8 mm 6 mps 751 mmHg 77%

    Tomorrow, 20 November, Tuesday

    Time Temperature Precipitation Wind Pressure Humidity
    00:00 -2°C° 1.7 mm 6 mps 751 mmHg 82%
    01:00 -2°C° 1.7 mm 7 mps 751 mmHg 87%
    02:00 -3°C° 1.7 mm 7 mps 751 mmHg 92%
    03:00 -3°C° 1 mm 7 mps 751 mmHg 93%
    04:00 -3°C° 1 mm 7 mps 751 mmHg 93%
    05:00 -4°C° 1 mm 7 mps 751 mmHg 93%
    06:00 -4°C° 0.8 mm 7 mps 751 mmHg 93%
    07:00 -4°C° 0.8 mm 7 mps 752 mmHg 92%
    08:00 -4°C° 0.8 mm 7 mps 752 mmHg 92%
    09:00 -4°C° 0.1 mm 7 mps 752 mmHg 91%
    10:00 -4°C° 0.1 mm 7 mps 753 mmHg 90%
    11:00 -3°C° 0.1 mm 6 mps 753 mmHg 89%
    12:00 -3°C° 0 mm 6 mps 753 mmHg 87%
    13:00 -2°C° 0 mm 5 mps 753 mmHg 85%
    14:00 -2°C° 0 mm 5 mps 754 mmHg 82%
    15:00 -2°C° 0 mm 5 mps 754 mmHg 81%
    16:00 -3°C° 0 mm 4 mps 754 mmHg 80%
    17:00 -4°C° 0 mm 4 mps 754 mmHg 78%
    18:00 -4°C° 0 mm 4 mps 755 mmHg 79%
    19:00 -5°C° 0 mm 3 mps 755 mmHg 81%
    20:00 -5°C° 0 mm 3 mps 755 mmHg 82%
    21:00 -5°C° 0 mm 3 mps 755 mmHg 84%
    22:00 -6°C° 0 mm 3 mps 755 mmHg 86%
    23:00 -6°C° 0 mm 3 mps 756 mmHg 87%

    Day after tomorrow, 21 November, Wednesday

    Time Temperature Precipitation Wind Pressure Humidity
    00:00 -6°C° 0 mm 3 mps 756 mmHg 89%
    01:00 -6°C° 0 mm 3 mps 756 mmHg 90%
    02:00 -7°C° 0 mm 3 mps 756 mmHg 91%
    03:00 -7°C° 0 mm 3 mps 755 mmHg 92%
    04:00 -7°C° 0 mm 3 mps 755 mmHg 92%
    05:00 -7°C° 0 mm 3 mps 755 mmHg 93%
    06:00 -7°C° 0 mm 3 mps 755 mmHg 93%
    07:00 -7°C° 0 mm 3 mps 756 mmHg 93%
    08:00 -7°C° 0 mm 3 mps 756 mmHg 93%
    09:00 -7°C° 0 mm 4 mps 756 mmHg 91%
    10:00 -4°C° 0 mm 4 mps 756 mmHg 90%
    11:00 -3°C° 0 mm 4 mps 756 mmHg 88%
    12:00 -3°C° 0 mm 4 mps 755 mmHg 88%
    13:00 -3°C° 0 mm 4 mps 755 mmHg 88%
    14:00 -1°C° 0 mm 3 mps 755 mmHg 87%
    15:00 -2°C° 0 mm 3 mps 755 mmHg 88%
    16:00 -4°C° 0 mm 3 mps 755 mmHg 88%
    17:00 -5°C° 0 mm 3 mps 755 mmHg 89%
    18:00 -5°C° 0 mm 3 mps 755 mmHg 88%
    19:00 -6°C° 0 mm 3 mps 755 mmHg 87%
    20:00 -6°C° 0 mm 3 mps 755 mmHg 86%
    21:00 -6°C° 0 mm 3 mps 756 mmHg 86%
    22:00 -6°C° 0 mm 3 mps 756 mmHg 87%
    23:00 -6°C° 0 mm 3 mps 756 mmHg 87%

    22 November, Thursday

    Time Temperature Precipitation Wind Pressure Humidity
    00:00 -7°C° 0 mm 3 mps 756 mmHg 88%
    01:00 -7°C° 0 mm 3 mps 756 mmHg 89%
    02:00 -7°C° 0 mm 3 mps 756 mmHg 89%
    03:00 -7°C° 0 mm 3 mps 756 mmHg 90%
    04:00 -7°C° 0 mm 3 mps 756 mmHg 90%
    05:00 -7°C° 0 mm 3 mps 756 mmHg 91%
    06:00 -7°C° 0 mm 3 mps 756 mmHg 91%
    07:00 -7°C° 0 mm 3 mps 756 mmHg 91%
    08:00 -7°C° 0 mm 3 mps 756 mmHg 92%
    09:00 -6°C° 0 mm 3 mps 756 mmHg 90%
    10:00 -5°C° 0 mm 3 mps 756 mmHg 88%
    11:00 -4°C° 0 mm 3 mps 757 mmHg 87%
    12:00 -2°C° 0 mm 3 mps 756 mmHg 86%
    13:00 -2°C° 0 mm 3 mps 756 mmHg 85%
    14:00 -2°C° 0 mm 3 mps 756 mmHg 83%
    15:00 -4°C° 0 mm 3 mps 756 mmHg 85%
    16:00 -5°C° 0 mm 3 mps 756 mmHg 86%
    17:00 -6°C° 0 mm 3 mps 756 mmHg 87%
    18:00 -6°C° 0 mm 3 mps 756 mmHg 87%
    19:00 -6°C° 0 mm 3 mps 756 mmHg 88%
    20:00 -7°C° 0 mm 3 mps 757 mmHg 88%
    21:00 -7°C° 0 mm 3 mps 757 mmHg 89%
    22:00 -7°C° 0 mm 3 mps 757 mmHg 89%
    23:00 -7°C° 0 mm 3 mps 757 mmHg 90%

    23 November, Friday

    Time Temperature Precipitation Wind Pressure Humidity
    00:00 -7°C° 0 mm 3 mps 757 mmHg 90%
    01:00 -7°C° 0 mm 3 mps 757 mmHg 90%
    02:00 -8°C° 0 mm 4 mps 757 mmHg 91%
    03:00 -8°C° 0 mm 4 mps 757 mmHg 91%
    04:00 -8°C° 0 mm 4 mps 757 mmHg 91%
    05:00 -8°C° 0 mm 4 mps 758 mmHg 92%
    06:00 -8°C° 0 mm 4 mps 758 mmHg 92%
    07:00 -8°C° 0 mm 4 mps 758 mmHg 92%
    08:00 -8°C° 0 mm 4 mps 759 mmHg 93%
    09:00 -7°C° 0 mm 4 mps 759 mmHg 91%
    10:00 -5°C° 0 mm 4 mps 760 mmHg 89%
    11:00 -4°C° 0 mm 4 mps 760 mmHg 86%
    12:00 -4°C° 0 mm 3 mps 760 mmHg 86%
    13:00 -2°C° 0 mm 3 mps 760 mmHg 86%
    14:00 -2°C° 0 mm 3 mps 761 mmHg 85%
    15:00 -2°C° 0 mm 3 mps 761 mmHg 86%
    16:00 -3°C° 0 mm 2 mps 761 mmHg 87%
    17:00 -4°C° 0 mm 2 mps 762 mmHg 88%
    18:00 -4°C° 0 mm 2 mps 762 mmHg 88%
    19:00 -5°C° 0 mm 2 mps 762 mmHg 87%
    20:00 -5°C° 0 mm 2 mps 762 mmHg 87%
    21:00 -5°C° 0 mm 2 mps 763 mmHg 87%
    22:00 -4°C° 0 mm 1 mps 763 mmHg 87%
    23:00 -4°C° 0 mm 1 mps 763 mmHg 87%

    24 November, Saturday

    Time Temperature Precipitation Wind Pressure Humidity
    00:00 -4°C° 0 mm 1 mps 763 mmHg 86%
    01:00 -4°C° 0 mm 1 mps 763 mmHg 86%
    02:00 -6°C° 0 mm 1 mps 763 mmHg 85%
    03:00 -6°C° 0 mm 1 mps 763 mmHg 85%
    04:00 -6°C° 0 mm 1 mps 763 mmHg 84%
    05:00 -6°C° 0 mm 1 mps 762 mmHg 84%
    06:00 -6°C° 0 mm 1 mps 762 mmHg 84%
    07:00 -6°C° 0 mm 1 mps 762 mmHg 83%
    08:00 -6°C° 0 mm 1 mps 762 mmHg 83%
    09:00 -4°C° 0 mm 1 mps 762 mmHg 81%
    10:00 -2°C° 0 mm 1 mps 762 mmHg 79%
    11:00 -1°C° 0 mm 1 mps 762 mmHg 76%
    12:00 -1°C° 0 mm 1 mps 762 mmHg 78%
    13:00 -1°C° 0 mm 1 mps 761 mmHg 79%
    14:00 0°C° 0 mm 1 mps 761 mmHg 80%
    15:00 -1°C° 0 mm 1 mps 760 mmHg 81%
    16:00 -3°C° 0 mm 1 mps 760 mmHg 82%
    17:00 -4°C° 0 mm 1 mps 760 mmHg 83%
    18:00 -4°C° 0 mm 1 mps 760 mmHg 83%
    19:00 -4°C° 0 mm 1 mps 760 mmHg 82%
    20:00 -4°C° 0 mm 1 mps 759 mmHg 82%
    21:00 -6°C° 0 mm 2 mps 759 mmHg 82%
    22:00 -7°C° 0 mm 2 mps 759 mmHg 81%
    23:00 -7°C° 0 mm 2 mps 759 mmHg 81%
    Show more